Year,Month,Day,Hour,Minute,Value (Times are PST for temperature in C)
2010,11,08,00,00,7.50
2010,11,08,00,01,7.50
2010,11,08,00,02,7.50
2010,11,08,00,03,7.50
2010,11,08,00,04,7.50
2010,11,08,00,05,7.50
2010,11,08,00,06,7.50
2010,11,08,00,07,7.50
2010,11,08,00,08,7.50
2010,11,08,00,09,7.40
2010,11,08,00,10,7.40
2010,11,08,00,11,7.40
2010,11,08,00,12,7.40
2010,11,08,00,13,7.40
2010,11,08,00,14,7.30
2010,11,08,00,15,7.30
2010,11,08,00,16,7.30
2010,11,08,00,17,7.30
2010,11,08,00,18,7.20
2010,11,08,00,19,7.20
2010,11,08,00,20,7.20
2010,11,08,00,21,7.20
2010,11,08,00,22,7.20
2010,11,08,00,23,7.20
2010,11,08,00,24,7.20
2010,11,08,00,25,7.20
2010,11,08,00,26,7.20
2010,11,08,00,27,7.10
2010,11,08,00,28,7.10
2010,11,08,00,29,7.10
2010,11,08,00,30,7.10
2010,11,08,00,31,7.10
2010,11,08,00,32,7.10
2010,11,08,00,33,7.00
2010,11,08,00,34,7.00
2010,11,08,00,35,6.90
2010,11,08,00,36,6.90
2010,11,08,00,37,6.90
2010,11,08,00,38,6.90
2010,11,08,00,39,6.80
2010,11,08,00,40,6.80
2010,11,08,00,41,6.80
2010,11,08,00,42,6.80
2010,11,08,00,43,6.80
2010,11,08,00,44,6.80
2010,11,08,00,45,6.80
2010,11,08,00,46,6.80
2010,11,08,00,47,6.80
2010,11,08,00,48,6.80
2010,11,08,00,49,6.80
2010,11,08,00,50,6.80
2010,11,08,00,51,6.80
2010,11,08,00,52,6.80
2010,11,08,00,53,6.80
2010,11,08,00,54,6.80
2010,11,08,00,55,6.80
2010,11,08,00,56,6.80
2010,11,08,00,57,6.80
2010,11,08,00,58,6.80
2010,11,08,00,59,6.80
2010,11,08,01,00,6.80
2010,11,08,01,01,6.80
2010,11,08,01,02,6.80
2010,11,08,01,03,6.80
2010,11,08,01,04,6.80
2010,11,08,01,05,6.80
2010,11,08,01,06,6.80
2010,11,08,01,07,6.80
2010,11,08,01,08,6.80
2010,11,08,01,09,6.70
2010,11,08,01,10,6.70
2010,11,08,01,11,6.70
2010,11,08,01,12,6.70
2010,11,08,01,13,6.70
2010,11,08,01,14,6.70
2010,11,08,01,15,6.70
2010,11,08,01,16,6.70
2010,11,08,01,17,6.70
2010,11,08,01,18,6.60
2010,11,08,01,19,6.60
2010,11,08,01,20,6.60
2010,11,08,01,21,6.60
2010,11,08,01,22,6.60
2010,11,08,01,23,6.60
2010,11,08,01,24,6.60
2010,11,08,01,25,6.60
2010,11,08,01,26,6.60
2010,11,08,01,27,6.60
2010,11,08,01,28,6.60
2010,11,08,01,29,6.60
2010,11,08,01,30,6.60
2010,11,08,01,31,6.60
2010,11,08,01,32,6.60
2010,11,08,01,33,6.60
2010,11,08,01,34,6.50
2010,11,08,01,35,6.50
2010,11,08,01,36,6.50
2010,11,08,01,37,6.50
2010,11,08,01,38,6.50
2010,11,08,01,39,6.50
2010,11,08,01,40,6.40
2010,11,08,01,41,6.40
2010,11,08,01,42,6.40
2010,11,08,01,43,6.40
2010,11,08,01,44,6.40
2010,11,08,01,45,6.40
2010,11,08,01,46,6.40
2010,11,08,01,47,6.40
2010,11,08,01,48,6.40
2010,11,08,01,49,6.40
2010,11,08,01,50,6.40
2010,11,08,01,51,6.30
2010,11,08,01,52,6.30
2010,11,08,01,53,6.30
2010,11,08,01,54,6.30
2010,11,08,01,55,6.30
2010,11,08,01,56,6.30
2010,11,08,01,57,6.30
2010,11,08,01,58,6.30
2010,11,08,01,59,6.30
2010,11,08,02,00,6.30
2010,11,08,02,01,6.30
2010,11,08,02,02,6.30
2010,11,08,02,03,6.30
2010,11,08,02,04,6.30
2010,11,08,02,05,6.30
2010,11,08,02,06,6.30
2010,11,08,02,07,6.30
2010,11,08,02,08,6.30
2010,11,08,02,09,6.30
2010,11,08,02,10,6.30
2010,11,08,02,11,6.30
2010,11,08,02,12,6.30
2010,11,08,02,13,6.30
2010,11,08,02,14,6.30
2010,11,08,02,15,6.30
2010,11,08,02,16,6.30
2010,11,08,02,17,6.30
2010,11,08,02,18,6.30
2010,11,08,02,19,6.30
2010,11,08,02,20,6.30
2010,11,08,02,21,6.30
2010,11,08,02,22,6.30
2010,11,08,02,23,6.30
2010,11,08,02,24,6.30
2010,11,08,02,25,6.30
2010,11,08,02,26,6.40
2010,11,08,02,27,6.40
2010,11,08,02,28,6.40
2010,11,08,02,29,6.40
2010,11,08,02,30,6.40
2010,11,08,02,31,6.40
2010,11,08,02,32,6.40
2010,11,08,02,33,6.40
2010,11,08,02,34,6.40
2010,11,08,02,35,6.40
2010,11,08,02,36,6.40
2010,11,08,02,37,6.40
2010,11,08,02,38,6.30
2010,11,08,02,39,6.30
2010,11,08,02,40,6.30
2010,11,08,02,41,6.30
2010,11,08,02,42,6.30
2010,11,08,02,43,6.30
2010,11,08,02,44,6.30
2010,11,08,02,45,6.30
2010,11,08,02,46,6.30
2010,11,08,02,47,6.20
2010,11,08,02,48,6.20
2010,11,08,02,49,6.20
2010,11,08,02,50,6.20
2010,11,08,02,51,6.20
2010,11,08,02,52,6.20
2010,11,08,02,53,6.20
2010,11,08,02,54,6.20
2010,11,08,02,55,6.20
2010,11,08,02,56,6.20
2010,11,08,02,57,6.10
2010,11,08,02,58,6.10
2010,11,08,02,59,6.10
2010,11,08,03,00,6.10
2010,11,08,03,01,6.10
2010,11,08,03,02,6.00
2010,11,08,03,03,6.00
2010,11,08,03,04,6.00
2010,11,08,03,05,6.00
2010,11,08,03,06,5.90
2010,11,08,03,07,5.90
2010,11,08,03,08,5.90
2010,11,08,03,09,5.90
2010,11,08,03,10,5.90
2010,11,08,03,11,5.90
2010,11,08,03,12,5.90
2010,11,08,03,13,5.90
2010,11,08,03,14,5.80
2010,11,08,03,15,5.80
2010,11,08,03,16,5.80
2010,11,08,03,17,5.80
2010,11,08,03,18,5.80
2010,11,08,03,19,5.80
2010,11,08,03,20,5.70
2010,11,08,03,21,5.70
2010,11,08,03,22,5.70
2010,11,08,03,23,5.70
2010,11,08,03,24,5.70
2010,11,08,03,25,5.70
2010,11,08,03,26,5.60
2010,11,08,03,27,5.60
2010,11,08,03,28,5.60
2010,11,08,03,29,5.60
2010,11,08,03,30,5.60
2010,11,08,03,31,5.50
2010,11,08,03,32,5.50
2010,11,08,03,33,5.50
2010,11,08,03,34,5.40
2010,11,08,03,35,5.40
2010,11,08,03,36,5.40
2010,11,08,03,37,5.40
2010,11,08,03,38,5.40
2010,11,08,03,39,5.40
2010,11,08,03,40,5.40
2010,11,08,03,41,5.40
2010,11,08,03,42,5.40
2010,11,08,03,43,5.40
2010,11,08,03,44,5.40
2010,11,08,03,45,5.50
2010,11,08,03,46,5.50
2010,11,08,03,47,5.50
2010,11,08,03,48,5.60
2010,11,08,03,49,5.60
2010,11,08,03,50,5.60
2010,11,08,03,51,5.60
2010,11,08,03,52,5.60
2010,11,08,03,53,5.60
2010,11,08,03,54,5.60
2010,11,08,03,55,5.70
2010,11,08,03,56,5.70
2010,11,08,03,57,5.70
2010,11,08,03,58,5.70
2010,11,08,03,59,5.70
2010,11,08,04,00,5.70
2010,11,08,04,01,5.70
2010,11,08,04,02,5.70
2010,11,08,04,03,5.70
2010,11,08,04,04,5.70
2010,11,08,04,05,5.70
2010,11,08,04,06,5.70
2010,11,08,04,07,5.70
2010,11,08,04,08,5.70
2010,11,08,04,09,5.70
2010,11,08,04,10,5.70
2010,11,08,04,11,5.70
2010,11,08,04,12,5.70
2010,11,08,04,13,5.70
2010,11,08,04,14,5.70
2010,11,08,04,15,5.70
2010,11,08,04,16,5.70
2010,11,08,04,17,5.70
2010,11,08,04,18,5.70
2010,11,08,04,19,5.70
2010,11,08,04,20,5.70
2010,11,08,04,21,5.70
2010,11,08,04,22,5.70
2010,11,08,04,23,5.70
2010,11,08,04,24,5.70
2010,11,08,04,25,5.70
2010,11,08,04,26,5.70
2010,11,08,04,27,5.70
2010,11,08,04,28,5.70
2010,11,08,04,29,5.70
2010,11,08,04,30,5.70
2010,11,08,04,31,5.60
2010,11,08,04,32,5.60
2010,11,08,04,33,5.70
2010,11,08,04,34,5.70
2010,11,08,04,35,5.70
2010,11,08,04,36,5.70
2010,11,08,04,37,5.70
2010,11,08,04,38,5.70
2010,11,08,04,39,5.70
2010,11,08,04,40,5.70
2010,11,08,04,41,5.70
2010,11,08,04,42,5.70
2010,11,08,04,43,5.70
2010,11,08,04,44,5.70
2010,11,08,04,45,5.70
2010,11,08,04,46,5.70
2010,11,08,04,47,5.70
2010,11,08,04,48,5.70
2010,11,08,04,49,5.70
2010,11,08,04,50,5.60
2010,11,08,04,51,5.60
2010,11,08,04,52,5.60
2010,11,08,04,53,5.60
2010,11,08,04,54,5.60
2010,11,08,04,55,5.60
2010,11,08,04,56,5.60
2010,11,08,04,57,5.60
2010,11,08,04,58,5.60
2010,11,08,04,59,5.60
2010,11,08,05,00,5.60
2010,11,08,05,01,5.60
2010,11,08,05,02,5.70
2010,11,08,05,03,5.70
2010,11,08,05,04,5.70
2010,11,08,05,05,5.70
2010,11,08,05,06,5.70
2010,11,08,05,07,5.70
2010,11,08,05,08,5.70
2010,11,08,05,09,5.70
2010,11,08,05,10,5.70
2010,11,08,05,11,5.70
2010,11,08,05,12,5.70
2010,11,08,05,13,5.70
2010,11,08,05,14,5.70
2010,11,08,05,15,5.70
2010,11,08,05,16,5.60
2010,11,08,05,17,5.60
2010,11,08,05,18,5.60
2010,11,08,05,19,5.60
2010,11,08,05,20,5.60
2010,11,08,05,21,5.50
2010,11,08,05,22,5.50
2010,11,08,05,23,5.50
2010,11,08,05,24,5.50
2010,11,08,05,25,5.50
2010,11,08,05,26,5.50
2010,11,08,05,27,5.50
2010,11,08,05,28,5.50
2010,11,08,05,29,5.50
2010,11,08,05,30,5.50
2010,11,08,05,31,5.50
2010,11,08,05,32,5.50
2010,11,08,05,33,5.50
2010,11,08,05,34,5.40
2010,11,08,05,35,5.40
2010,11,08,05,36,5.40
2010,11,08,05,37,5.40
2010,11,08,05,38,5.40
2010,11,08,05,39,5.40
2010,11,08,05,40,5.40
2010,11,08,05,41,5.40
2010,11,08,05,42,5.40
2010,11,08,05,43,5.40
2010,11,08,05,44,5.40
2010,11,08,05,45,5.40
2010,11,08,05,46,5.50
2010,11,08,05,47,5.50
2010,11,08,05,48,5.50
2010,11,08,05,49,5.50
2010,11,08,05,50,5.50
2010,11,08,05,51,5.50
2010,11,08,05,52,5.50
2010,11,08,05,53,5.40
2010,11,08,05,54,5.40
2010,11,08,05,55,5.40
2010,11,08,05,56,5.40
2010,11,08,05,57,5.40
2010,11,08,05,58,5.30
2010,11,08,05,59,5.30
2010,11,08,06,00,5.30
2010,11,08,06,01,5.30
2010,11,08,06,02,5.30
2010,11,08,06,03,5.20
2010,11,08,06,04,5.20
2010,11,08,06,05,5.20
2010,11,08,06,06,5.20
2010,11,08,06,07,5.20
2010,11,08,06,08,5.20
2010,11,08,06,09,5.10
2010,11,08,06,10,5.10
2010,11,08,06,11,5.10
2010,11,08,06,12,5.10
2010,11,08,06,13,5.10
2010,11,08,06,14,5.10
2010,11,08,06,15,5.10
2010,11,08,06,16,5.10
2010,11,08,06,17,5.10
2010,11,08,06,18,5.10
2010,11,08,06,19,5.10
2010,11,08,06,20,5.10
2010,11,08,06,21,5.10
2010,11,08,06,22,5.10
2010,11,08,06,23,5.20
2010,11,08,06,24,5.20
2010,11,08,06,25,5.20
2010,11,08,06,26,5.10
2010,11,08,06,27,5.10
2010,11,08,06,28,5.10
2010,11,08,06,29,5.10
2010,11,08,06,30,5.10
2010,11,08,06,31,5.20
2010,11,08,06,32,5.20
2010,11,08,06,33,5.20
2010,11,08,06,34,5.20
2010,11,08,06,35,5.20
2010,11,08,06,36,5.20
2010,11,08,06,37,5.20
2010,11,08,06,38,5.20
2010,11,08,06,39,5.20
2010,11,08,06,40,5.20
2010,11,08,06,41,5.20
2010,11,08,06,42,5.20
2010,11,08,06,43,5.20
2010,11,08,06,44,5.20
2010,11,08,06,45,5.20
2010,11,08,06,46,5.20
2010,11,08,06,47,5.20
2010,11,08,06,48,5.20
2010,11,08,06,49,5.20
2010,11,08,06,50,5.20
2010,11,08,06,51,5.20
2010,11,08,06,52,5.20
2010,11,08,06,53,5.20
2010,11,08,06,54,5.20
2010,11,08,06,55,5.30
2010,11,08,06,56,5.30
2010,11,08,06,57,5.30
2010,11,08,06,58,5.30
2010,11,08,06,59,5.30
2010,11,08,07,00,5.30
2010,11,08,07,01,5.30
2010,11,08,07,02,5.30
2010,11,08,07,03,5.30
2010,11,08,07,04,5.30
2010,11,08,07,05,5.30
2010,11,08,07,06,5.30
2010,11,08,07,07,5.30
2010,11,08,07,08,5.30
2010,11,08,07,09,5.30
2010,11,08,07,10,5.30
2010,11,08,07,11,5.30
2010,11,08,07,12,5.30
2010,11,08,07,13,5.30
2010,11,08,07,14,5.30
2010,11,08,07,15,5.30
2010,11,08,07,16,5.30
2010,11,08,07,17,5.30
2010,11,08,07,18,5.30
2010,11,08,07,19,5.30
2010,11,08,07,20,5.30
2010,11,08,07,21,5.30
2010,11,08,07,22,5.30
2010,11,08,07,23,5.30
2010,11,08,07,24,5.20
2010,11,08,07,25,5.20
2010,11,08,07,26,5.20
2010,11,08,07,27,5.20
2010,11,08,07,28,5.20
2010,11,08,07,29,5.20
2010,11,08,07,30,5.30
2010,11,08,07,31,5.30
2010,11,08,07,32,5.30
2010,11,08,07,33,5.30
2010,11,08,07,34,5.30
2010,11,08,07,35,5.30
2010,11,08,07,36,5.30
2010,11,08,07,37,5.30
2010,11,08,07,38,5.30
2010,11,08,07,39,5.30
2010,11,08,07,40,5.30
2010,11,08,07,41,5.40
2010,11,08,07,42,5.40
2010,11,08,07,43,5.40
2010,11,08,07,44,5.40
2010,11,08,07,45,5.40
2010,11,08,07,46,5.40
2010,11,08,07,47,5.50
2010,11,08,07,48,5.50
2010,11,08,07,49,5.50
2010,11,08,07,50,5.50
2010,11,08,07,51,5.50
2010,11,08,07,52,5.60
2010,11,08,07,53,5.60
2010,11,08,07,54,5.60
2010,11,08,07,55,5.60
2010,11,08,07,56,5.70
2010,11,08,07,57,5.70
2010,11,08,07,58,5.70
2010,11,08,07,59,5.80
2010,11,08,08,00,5.80
2010,11,08,08,01,5.80
2010,11,08,08,02,5.90
2010,11,08,08,03,5.90
2010,11,08,08,04,5.90
2010,11,08,08,05,6.00
2010,11,08,08,06,6.00
2010,11,08,08,07,6.10
2010,11,08,08,08,6.10
2010,11,08,08,09,6.10
2010,11,08,08,10,6.10
2010,11,08,08,11,6.20
2010,11,08,08,12,6.20
2010,11,08,08,13,6.20
2010,11,08,08,14,6.20
2010,11,08,08,15,6.30
2010,11,08,08,16,6.30
2010,11,08,08,17,6.30
2010,11,08,08,18,6.30
2010,11,08,08,19,6.30
2010,11,08,08,20,6.30
2010,11,08,08,21,6.40
2010,11,08,08,22,6.40
2010,11,08,08,23,6.40
2010,11,08,08,24,6.50
2010,11,08,08,25,6.50
2010,11,08,08,26,6.60
2010,11,08,08,27,6.60
2010,11,08,08,28,6.60
2010,11,08,08,29,6.70
2010,11,08,08,30,6.70
2010,11,08,08,31,6.80
2010,11,08,08,32,6.80
2010,11,08,08,33,6.80
2010,11,08,08,34,6.80
2010,11,08,08,35,6.90
2010,11,08,08,36,6.90
2010,11,08,08,37,7.00
2010,11,08,08,38,7.00
2010,11,08,08,39,7.10
2010,11,08,08,40,7.10
2010,11,08,08,41,7.20
2010,11,08,08,42,7.20
2010,11,08,08,43,7.30
2010,11,08,08,44,7.30
2010,11,08,08,45,7.30
2010,11,08,08,46,7.40
2010,11,08,08,47,7.40
2010,11,08,08,48,7.50
2010,11,08,08,49,7.50
2010,11,08,08,50,7.60
2010,11,08,08,51,7.60
2010,11,08,08,52,7.70
2010,11,08,08,53,7.70
2010,11,08,08,54,7.80
2010,11,08,08,55,7.80
2010,11,08,08,56,7.80
2010,11,08,08,57,7.80
2010,11,08,08,58,7.90
2010,11,08,08,59,7.90
2010,11,08,09,00,7.90
2010,11,08,09,01,7.90
2010,11,08,09,02,7.90
2010,11,08,09,03,7.90
2010,11,08,09,04,8.00
2010,11,08,09,05,8.00
2010,11,08,09,06,8.00
2010,11,08,09,07,8.10
2010,11,08,09,08,8.10
2010,11,08,09,09,8.10
2010,11,08,09,10,8.20
2010,11,08,09,11,8.20
2010,11,08,09,12,8.20
2010,11,08,09,13,8.20
2010,11,08,09,14,8.30
2010,11,08,09,15,8.30
2010,11,08,09,16,8.30
2010,11,08,09,17,8.30
2010,11,08,09,18,8.30
2010,11,08,09,19,8.40
2010,11,08,09,20,8.40
2010,11,08,09,21,8.40
2010,11,08,09,22,8.40
2010,11,08,09,23,8.50
2010,11,08,09,24,8.50
2010,11,08,09,25,8.50
2010,11,08,09,26,8.60
2010,11,08,09,27,8.60
2010,11,08,09,28,8.60
2010,11,08,09,29,8.60
2010,11,08,09,30,8.60
2010,11,08,09,31,8.70
2010,11,08,09,32,8.70
2010,11,08,09,33,8.70
2010,11,08,09,34,8.70
2010,11,08,09,35,8.70
2010,11,08,09,36,8.70
2010,11,08,09,37,8.70
2010,11,08,09,38,8.80
2010,11,08,09,39,8.80
2010,11,08,09,40,8.80
2010,11,08,09,41,8.80
2010,11,08,09,42,8.80
2010,11,08,09,43,8.90
2010,11,08,09,44,8.90
2010,11,08,09,45,8.90
2010,11,08,09,46,8.90
2010,11,08,09,47,9.00
2010,11,08,09,48,9.00
2010,11,08,09,49,9.00
2010,11,08,09,50,9.10
2010,11,08,09,51,9.10
2010,11,08,09,52,9.20
2010,11,08,09,53,9.20
2010,11,08,09,54,9.20
2010,11,08,09,55,9.30
2010,11,08,09,56,9.30
2010,11,08,09,57,9.30
2010,11,08,09,58,9.30
2010,11,08,09,59,9.30
2010,11,08,10,00,9.30
2010,11,08,10,01,9.30
2010,11,08,10,02,9.30
2010,11,08,10,03,9.30
2010,11,08,10,04,9.40
2010,11,08,10,05,9.40
2010,11,08,10,06,9.40
2010,11,08,10,07,9.50
2010,11,08,10,08,9.50
2010,11,08,10,09,9.50
2010,11,08,10,10,9.50
2010,11,08,10,11,9.50
2010,11,08,10,12,9.50
2010,11,08,10,13,9.40
2010,11,08,10,14,9.40
2010,11,08,10,15,9.40
2010,11,08,10,16,9.40
2010,11,08,10,17,9.30
2010,11,08,10,18,9.30
2010,11,08,10,19,9.30
2010,11,08,10,20,9.30
2010,11,08,10,21,9.40
2010,11,08,10,22,9.40
2010,11,08,10,23,9.40
2010,11,08,10,24,9.40
2010,11,08,10,25,9.40
2010,11,08,10,26,9.50
2010,11,08,10,27,9.50
2010,11,08,10,28,9.50
2010,11,08,10,29,9.60
2010,11,08,10,30,9.60
2010,11,08,10,31,9.60
2010,11,08,10,32,9.70
2010,11,08,10,33,9.70
2010,11,08,10,34,9.70
2010,11,08,10,35,9.70
2010,11,08,10,36,9.70
2010,11,08,10,37,9.70
2010,11,08,10,38,9.70
2010,11,08,10,39,9.60
2010,11,08,10,40,9.60
2010,11,08,10,41,9.60
2010,11,08,10,42,9.60
2010,11,08,10,43,9.50
2010,11,08,10,44,9.50
2010,11,08,10,45,9.50
2010,11,08,10,46,9.50
2010,11,08,10,47,9.50
2010,11,08,10,48,9.50
2010,11,08,10,49,9.50
2010,11,08,10,50,9.60
2010,11,08,10,51,9.60
2010,11,08,10,52,9.60
2010,11,08,10,53,9.70
2010,11,08,10,54,9.70
2010,11,08,10,55,9.80
2010,11,08,10,56,9.80
2010,11,08,10,57,9.80
2010,11,08,10,58,9.80
2010,11,08,10,59,9.80
2010,11,08,11,00,9.70
2010,11,08,11,01,9.70
2010,11,08,11,02,9.60
2010,11,08,11,03,9.60
2010,11,08,11,04,9.60
2010,11,08,11,05,9.60
2010,11,08,11,06,9.60
2010,11,08,11,07,9.60
2010,11,08,11,08,9.70
2010,11,08,11,09,9.70
2010,11,08,11,10,9.70
2010,11,08,11,11,9.80
2010,11,08,11,12,9.80
2010,11,08,11,13,9.80
2010,11,08,11,14,9.80
2010,11,08,11,15,9.80
2010,11,08,11,16,9.80
2010,11,08,11,17,9.80
2010,11,08,11,18,9.80
2010,11,08,11,19,9.80
2010,11,08,11,20,9.80
2010,11,08,11,21,9.80
2010,11,08,11,22,9.80
2010,11,08,11,23,9.80
2010,11,08,11,24,9.80
2010,11,08,11,25,9.80
2010,11,08,11,26,9.70
2010,11,08,11,27,9.70
2010,11,08,11,28,9.70
2010,11,08,11,29,9.70
2010,11,08,11,30,9.70
2010,11,08,11,31,9.70
2010,11,08,11,32,9.70
2010,11,08,11,33,9.70
2010,11,08,11,34,9.70
2010,11,08,11,35,9.70
2010,11,08,11,36,9.60
2010,11,08,11,37,9.60
2010,11,08,11,38,9.60
2010,11,08,11,39,9.50
2010,11,08,11,40,9.50
2010,11,08,11,41,9.50
2010,11,08,11,42,9.50
2010,11,08,11,43,9.50
2010,11,08,11,44,9.50
2010,11,08,11,45,9.50
2010,11,08,11,46,9.40
2010,11,08,11,47,9.40
2010,11,08,11,48,9.40
2010,11,08,11,49,9.40
2010,11,08,11,50,9.30
2010,11,08,11,51,9.30
2010,11,08,11,52,9.30
2010,11,08,11,53,9.30
2010,11,08,11,54,9.30
2010,11,08,11,55,9.30
2010,11,08,11,56,9.30
2010,11,08,11,57,9.30
2010,11,08,11,58,9.30
2010,11,08,11,59,9.30
2010,11,08,12,00,9.30
2010,11,08,12,01,9.30
2010,11,08,12,02,9.40
2010,11,08,12,03,9.40
2010,11,08,12,04,9.50
2010,11,08,12,05,9.60
2010,11,08,12,06,9.70
2010,11,08,12,07,9.70
2010,11,08,12,08,9.80
2010,11,08,12,09,9.90
2010,11,08,12,10,9.90
2010,11,08,12,11,9.90
2010,11,08,12,12,9.90
2010,11,08,12,13,9.90
2010,11,08,12,14,10.00
2010,11,08,12,15,10.00
2010,11,08,12,16,10.00
2010,11,08,12,17,10.00
2010,11,08,12,18,10.00
2010,11,08,12,19,10.00
2010,11,08,12,20,10.00
2010,11,08,12,21,10.00
2010,11,08,12,22,10.10
2010,11,08,12,23,10.10
2010,11,08,12,24,10.10
2010,11,08,12,25,10.10
2010,11,08,12,26,10.10
2010,11,08,12,27,10.10
2010,11,08,12,28,10.20
2010,11,08,12,29,10.20
2010,11,08,12,30,10.20
2010,11,08,12,31,10.10
2010,11,08,12,32,10.10
2010,11,08,12,33,10.10
2010,11,08,12,34,10.10
2010,11,08,12,35,10.10
2010,11,08,12,36,10.00
2010,11,08,12,37,10.10
2010,11,08,12,38,10.10
2010,11,08,12,39,10.10
2010,11,08,12,40,10.10
2010,11,08,12,41,10.10
2010,11,08,12,42,10.10
2010,11,08,12,43,10.10
2010,11,08,12,44,10.00
2010,11,08,12,45,10.00
2010,11,08,12,46,9.80
2010,11,08,12,47,9.70
2010,11,08,12,48,9.60
2010,11,08,12,49,9.50
2010,11,08,12,50,9.50
2010,11,08,12,51,9.40
2010,11,08,12,52,9.40
2010,11,08,12,53,9.40
2010,11,08,12,54,9.40
2010,11,08,12,55,9.40
2010,11,08,12,56,9.40
2010,11,08,12,57,9.40
2010,11,08,12,58,9.40
2010,11,08,12,59,9.40
2010,11,08,13,00,9.30
2010,11,08,13,01,9.30
2010,11,08,13,02,9.30
2010,11,08,13,03,9.30
2010,11,08,13,04,9.30
2010,11,08,13,05,9.30
2010,11,08,13,06,9.20
2010,11,08,13,07,9.20
2010,11,08,13,08,9.20
2010,11,08,13,09,9.10
2010,11,08,13,10,9.10
2010,11,08,13,11,9.10
2010,11,08,13,12,9.10
2010,11,08,13,13,9.10
2010,11,08,13,14,9.20
2010,11,08,13,15,9.20
2010,11,08,13,16,9.30
2010,11,08,13,17,9.30
2010,11,08,13,18,9.40
2010,11,08,13,19,9.40
2010,11,08,13,20,9.40
2010,11,08,13,21,9.40
2010,11,08,13,22,9.40
2010,11,08,13,23,9.30
2010,11,08,13,24,9.30
2010,11,08,13,25,9.30
2010,11,08,13,26,9.20
2010,11,08,13,27,9.20
2010,11,08,13,28,9.20
2010,11,08,13,29,9.10
2010,11,08,13,30,9.10
2010,11,08,13,31,9.10
2010,11,08,13,32,9.10
2010,11,08,13,33,9.00
2010,11,08,13,34,9.00
2010,11,08,13,35,9.00
2010,11,08,13,36,9.10
2010,11,08,13,37,9.10
2010,11,08,13,38,9.10
2010,11,08,13,39,9.10
2010,11,08,13,40,9.20
2010,11,08,13,41,9.10
2010,11,08,13,42,9.20
2010,11,08,13,43,9.20
2010,11,08,13,44,9.20
2010,11,08,13,45,9.20
2010,11,08,13,46,9.30
2010,11,08,13,47,9.30
2010,11,08,13,48,9.40
2010,11,08,13,49,9.40
2010,11,08,13,50,9.40
2010,11,08,13,51,9.50
2010,11,08,13,52,9.50
2010,11,08,13,53,9.60
2010,11,08,13,54,9.60
2010,11,08,13,55,9.60
2010,11,08,13,56,9.60
2010,11,08,13,57,9.60
2010,11,08,13,58,9.60
2010,11,08,13,59,9.60
2010,11,08,14,00,9.60
2010,11,08,14,01,9.60
2010,11,08,14,02,9.60
2010,11,08,14,03,9.60
2010,11,08,14,04,9.60
2010,11,08,14,05,9.60
2010,11,08,14,06,9.60
2010,11,08,14,07,9.60
2010,11,08,14,08,9.60
2010,11,08,14,09,9.60
2010,11,08,14,10,9.60
2010,11,08,14,11,9.60
2010,11,08,14,12,9.60
2010,11,08,14,13,9.50
2010,11,08,14,14,9.50
2010,11,08,14,15,9.50
2010,11,08,14,16,9.50
2010,11,08,14,17,9.50
2010,11,08,14,18,9.40
2010,11,08,14,19,9.40
2010,11,08,14,20,9.40
2010,11,08,14,21,9.40
2010,11,08,14,22,9.50
2010,11,08,14,23,9.50
2010,11,08,14,24,9.50
2010,11,08,14,25,9.50
2010,11,08,14,26,9.50
2010,11,08,14,27,9.60
2010,11,08,14,28,9.60
2010,11,08,14,29,9.60
2010,11,08,14,30,9.60
2010,11,08,14,31,9.70
2010,11,08,14,32,9.70
2010,11,08,14,33,9.70
2010,11,08,14,34,9.60
2010,11,08,14,35,9.60
2010,11,08,14,36,9.60
2010,11,08,14,37,9.60
2010,11,08,14,38,9.60
2010,11,08,14,39,9.60
2010,11,08,14,40,9.50
2010,11,08,14,41,9.50
2010,11,08,14,42,9.50
2010,11,08,14,43,9.50
2010,11,08,14,44,9.50
2010,11,08,14,45,9.50
2010,11,08,14,46,9.50
2010,11,08,14,47,9.50
2010,11,08,14,48,9.50
2010,11,08,14,49,9.50
2010,11,08,14,50,9.50
2010,11,08,14,51,9.50
2010,11,08,14,52,9.60
2010,11,08,14,53,9.50
2010,11,08,14,54,9.60
2010,11,08,14,55,9.60
2010,11,08,14,56,9.50
2010,11,08,14,57,9.50
2010,11,08,14,58,9.50
2010,11,08,14,59,9.50
2010,11,08,15,00,9.50
2010,11,08,15,01,9.50
2010,11,08,15,02,9.50
2010,11,08,15,03,9.50
2010,11,08,15,04,9.50
2010,11,08,15,05,9.50
2010,11,08,15,06,9.50
2010,11,08,15,07,9.50
2010,11,08,15,08,9.50
2010,11,08,15,09,9.50
2010,11,08,15,10,9.50
2010,11,08,15,11,9.50
2010,11,08,15,12,9.50
2010,11,08,15,13,9.50
2010,11,08,15,14,9.50
2010,11,08,15,15,9.50
2010,11,08,15,16,9.50
2010,11,08,15,17,9.50
2010,11,08,15,18,9.50
2010,11,08,15,19,9.50
2010,11,08,15,20,9.50
2010,11,08,15,21,9.40
2010,11,08,15,22,9.40
2010,11,08,15,23,9.40
2010,11,08,15,24,9.40
2010,11,08,15,25,9.30
2010,11,08,15,26,9.30
2010,11,08,15,27,9.30
2010,11,08,15,28,9.30
2010,11,08,15,29,9.30
2010,11,08,15,30,9.30
2010,11,08,15,31,9.20
2010,11,08,15,32,9.20
2010,11,08,15,33,9.20
2010,11,08,15,34,9.10
2010,11,08,15,35,9.10
2010,11,08,15,36,9.10
2010,11,08,15,37,9.10
2010,11,08,15,38,9.00
2010,11,08,15,39,9.00
2010,11,08,15,40,9.00
2010,11,08,15,41,8.90
2010,11,08,15,42,8.90
2010,11,08,15,43,8.90
2010,11,08,15,44,8.90
2010,11,08,15,45,8.90
2010,11,08,15,46,8.90
2010,11,08,15,47,8.90
2010,11,08,15,48,8.90
2010,11,08,15,49,8.90
2010,11,08,15,50,8.90
2010,11,08,15,51,8.90
2010,11,08,15,52,8.80
2010,11,08,15,53,8.80
2010,11,08,15,54,8.90
2010,11,08,15,55,8.80
2010,11,08,15,56,8.80
2010,11,08,15,57,8.80
2010,11,08,15,58,8.80
2010,11,08,15,59,8.80
2010,11,08,16,00,8.80
2010,11,08,16,01,8.80
2010,11,08,16,02,8.80
2010,11,08,16,03,8.80
2010,11,08,16,04,8.80
2010,11,08,16,05,8.80
2010,11,08,16,06,8.80
2010,11,08,16,07,8.80
2010,11,08,16,08,8.80
2010,11,08,16,09,8.80
2010,11,08,16,10,8.90
2010,11,08,16,11,8.90
2010,11,08,16,12,8.90
2010,11,08,16,13,8.90
2010,11,08,16,14,8.90
2010,11,08,16,15,8.90
2010,11,08,16,16,8.90
2010,11,08,16,17,8.90
2010,11,08,16,18,8.90
2010,11,08,16,19,8.90
2010,11,08,16,20,8.90
2010,11,08,16,21,8.90
2010,11,08,16,22,8.80
2010,11,08,16,23,8.80
2010,11,08,16,24,8.80
2010,11,08,16,25,8.80
2010,11,08,16,26,8.80
2010,11,08,16,27,8.70
2010,11,08,16,28,8.70
2010,11,08,16,29,8.70
2010,11,08,16,30,8.70
2010,11,08,16,31,8.60
2010,11,08,16,32,8.60
2010,11,08,16,33,8.60
2010,11,08,16,34,8.50
2010,11,08,16,35,8.50
2010,11,08,16,36,8.40
2010,11,08,16,37,8.40
2010,11,08,16,38,8.30
2010,11,08,16,39,8.30
2010,11,08,16,40,8.30
2010,11,08,16,41,8.20
2010,11,08,16,42,8.20
2010,11,08,16,43,8.20
2010,11,08,16,44,8.10
2010,11,08,16,45,8.10
2010,11,08,16,46,8.10
2010,11,08,16,47,8.00
2010,11,08,16,48,8.00
2010,11,08,16,49,7.90
2010,11,08,16,50,7.90
2010,11,08,16,51,7.80
2010,11,08,16,52,7.80
2010,11,08,16,53,7.80
2010,11,08,16,54,7.80
2010,11,08,16,55,7.70
2010,11,08,16,56,7.70
2010,11,08,16,57,7.60
2010,11,08,16,58,7.60
2010,11,08,16,59,7.60
2010,11,08,17,00,7.50
2010,11,08,17,01,7.50
2010,11,08,17,02,7.40
2010,11,08,17,03,7.40
2010,11,08,17,04,7.30
2010,11,08,17,05,7.30
2010,11,08,17,06,7.30
2010,11,08,17,07,7.20
2010,11,08,17,08,7.20
2010,11,08,17,09,7.20
2010,11,08,17,10,7.10
2010,11,08,17,11,7.10
2010,11,08,17,12,7.10
2010,11,08,17,13,7.10
2010,11,08,17,14,7.00
2010,11,08,17,15,7.00
2010,11,08,17,16,7.00
2010,11,08,17,17,6.90
2010,11,08,17,18,6.90
2010,11,08,17,19,6.90
2010,11,08,17,20,6.90
2010,11,08,17,21,6.90
2010,11,08,17,22,6.80
2010,11,08,17,23,6.80
2010,11,08,17,24,6.80
2010,11,08,17,25,6.80
2010,11,08,17,26,6.80
2010,11,08,17,27,6.70
2010,11,08,17,28,6.70
2010,11,08,17,29,6.70
2010,11,08,17,30,6.70
2010,11,08,17,31,6.60
2010,11,08,17,32,6.60
2010,11,08,17,33,6.60
2010,11,08,17,34,6.60
2010,11,08,17,35,6.50
2010,11,08,17,36,6.50
2010,11,08,17,37,6.50
2010,11,08,17,38,6.50
2010,11,08,17,39,6.40
2010,11,08,17,40,6.40
2010,11,08,17,41,6.40
2010,11,08,17,42,6.40
2010,11,08,17,43,6.40
2010,11,08,17,44,6.40
2010,11,08,17,45,6.40
2010,11,08,17,46,6.40
2010,11,08,17,47,6.30
2010,11,08,17,48,6.30
2010,11,08,17,49,6.30
2010,11,08,17,50,6.30
2010,11,08,17,51,6.30
2010,11,08,17,52,6.30
2010,11,08,17,53,6.30
2010,11,08,17,54,6.20
2010,11,08,17,55,6.20
2010,11,08,17,56,6.20
2010,11,08,17,57,6.20
2010,11,08,17,58,6.20
2010,11,08,17,59,6.20
2010,11,08,18,00,6.20
2010,11,08,18,01,6.20
2010,11,08,18,02,6.20
2010,11,08,18,03,6.20
2010,11,08,18,04,6.20
2010,11,08,18,05,6.20